www.pogodaiklimat.ru

ПОГОДА в Ханфорде, CA

  • Прогноз погоды в Ханфорде
  • Монитор погоды в Ханфорде
  • Климат в Ханфорде

АРХИВ ПОГОДЫ в Ханфорде

Время (UTC), дата Ветер
(напр.,м/с)
 
Видим.   Явления Облачность Т
(С)
Тd
(С)
f
(%)
Тe
(С)
Тes
(С)
Комфортность

P
(гПа)

Po
(гПа)
Тmin
(С)
Tmax
(С)
R
(мм)
SD
(см)
20:53 23.06   16 км    ясно  +35.0  +11.7  24  +35  +62  опасность
солнечного
удара 
1011.9  1002.9         
21:53 23.06   16 км    ясно  +36.1  +10.0  21  +35  +58  опасность
солнечного
удара 
1011.4  1002.6         
22:53 23.06 С  16 км    ясно  +35.6  +10.0  21  +34  +48  очень
жарко 
1010.8  1001.9  +29.4  +36.7     
23:53 23.06 С  16 км    ясно  +36.1  +9.4  20  +35  +39  очень
жарко 
1010.2  1001.2         
00:53 24.06 СЗ  16 км    ясно  +35.6  +7.8  18  +34  +36  очень
жарко 
1010.1  1001.2         
01:53 24.06 СЗ  16 км    ясно  +33.3  +10.6  25  +33  +33  жарко  1010.1  1001.2         
02:53 24.06 СЗ  16 км    ясно  +31.7  +11.7  29  +32  +32  жарко  1010.2  1001.2         
03:53 24.06 СЗ  16 км    ясно  +30.0  +12.2  33  +31  +31  жарко  1010.7  1001.9         
04:53 24.06 СЗ  16 км    ясно  +28.3  +12.8  38  +30  +30  жарко  1010.7  1001.9  +27.8  +36.7     
05:53 24.06 СЗ  16 км    ясно  +26.7  +12.2  41  +28  +28  жарко  1010.7  1001.9         
06:53 24.06 СЗ  16 км    ясно  +25.0  +11.1  42  +26  +26  жарко  1010.4  1001.5         
07:53 24.06 СЗ  16 км    ясно  +25.0  +11.1  42  +26  +26  жарко  1010.4  1001.5         
08:53 24.06 СЗ  16 км    ясно  +23.9  +12.2  48  +26  +26  жарко  1010.2  1001.2         
09:53 24.06 В  16 км    ясно  +19.4  +15.0  76  +22  +22  комфорт  1010.5  1001.5         
10:53 24.06   16 км    ясно  +17.8  +15.0  84  +18  +18    1010.4  1001.5  +17.8  +28.3     
11:53 24.06 СЗ  16 км    ясно  +20.0  +13.9  68  +22  +22  комфорт  1010.3  1001.5         
12:53 24.06   14 км    ясно  +21.1  +13.9  63  +24  +24  комфорт  1010.9  1001.9         
13:53 24.06 С  16 км    ясно  +23.9  +12.8  50  +26  +27  жарко  1010.9  1001.9         
14:53 24.06 В  16 км    ясно  +25.0  +14.4  52  +28  +32  жарко  1011.1  1002.2         
15:53 24.06   16 км    ясно  +28.3  +14.4  43  +31  +42  душно  1010.9  1001.9         
16:53 24.06 С  16 км    ясно  +31.1  +11.7  30  +31  +41  жарко  1010.6  1001.9  +17.2  +31.1     
17:53 24.06   16 км    ясно  +32.8  +12.2  29  +33  +56  опасность
солнечного
удара 
1010.2  1001.2         
18:53 24.06 нст  16 км    ясно  +35.0  +12.2  25  +35  +57  опасность
солнечного
удара 
1009.5  1000.5         
19:53 24.06 нст  16 км    ясно  +36.7  +8.3  18  +35  +58  опасность
солнечного
удара 
1008.8  1000.2         
20:53 24.06 С  16 км    ясно  +36.7  +8.3  18  +35  +48  очень
жарко 
1008.3  999.5         
21:53 24.06 С  16 км    ясно  +35.6  +10.0  21  +34  +47  очень
жарко 
1007.5  998.5         
22:53 24.06 С  16 км    ясно  +35.6  +6.7  17  +33  +41  жарко  1007.0  998.2  +30.6  +37.2     
23:53 24.06 СЗ  16 км    ясно  +36.7  +6.1  15  +34  +39  очень
жарко 
1006.4  997.5         
00:53 25.06 СЗ  16 км    ясно  +35.6  +9.4  20  +34  +36  очень
жарко 
1006.6  997.9         
01:53 25.06 СЗ  16 км    ясно  +33.3  +8.9  22  +32  +32  жарко  1006.6  997.9         
02:53 25.06 СЗ  16 км    ясно  +29.4  +11.7  34  +30  +30  жарко  1006.7  997.9         
03:53 25.06 СЗ  16 км    ясно  +30.0  +11.7  32  +31  +31  жарко  1007.3  998.5         
04:53 25.06 СЗ  16 км    ясно  +27.2  +12.2  39  +28  +28  жарко  1007.5  998.9  +27.2  +37.2     
05:53 25.06 СЗ  16 км    ясно  +26.7  +11.1  38  +28  +28  жарко  1007.6  998.9         
06:53 25.06 СЗ  16 км    ясно  +25.0  +11.1  42  +26  +26  жарко  1007.5  998.5         
07:53 25.06 СЗ  16 км    ясно  +24.4  +10.0  40  +25  +25  комфорт  1007.1  998.5         
08:53 25.06 СЗ  16 км    ясно  +23.3  +10.0  43  +25  +25  комфорт  1007.1  998.2         
09:53 25.06 СЗ  16 км    ясно  +22.2  +10.0  46  +24  +24  комфорт  1007.2  998.2         
10:53 25.06 СЗ  16 км    ясно  +21.7  +8.9  44  +23  +23  комфорт  1007.3  998.5  +21.7  +27.2     
11:53 25.06   16 км    ясно  +19.4  +11.1  59  +20  +20    1007.6  998.9         
12:53 25.06   16 км    ясно  +18.9  +13.9  73  +20  +20    1008.2  999.5         
13:53 25.06 СЗ  16 км    ясно  +23.3  +9.4  41  +25  +26  комфорт  1009.0  1000.2         
14:53 25.06 С  16 км    ясно  +25.6  +10.6  39  +27  +30  жарко  1009.2  1000.5         
15:53 25.06 С  16 км    ясно  +28.3  +10.6  33  +29  +35  жарко  1009.0  1000.2         
16:53 25.06 С  16 км    ясно  +29.4  +10.6  31  +30  +38  жарко  1009.0  1000.2  +17.8  +30.0     
17:53 25.06 нст  16 км    ясно  +31.7  +7.8  23  +31  +45  жарко  1008.8  999.9         
18:53 25.06 С  16 км    ясно  +33.3  +7.2  20  +32  +43  жарко  1008.5  999.5         
19:53 25.06 нст  16 км    ясно  +34.4  +6.7  18  +32  +50  жарко  1008.2  999.5         

 

Местоположение метеостанции Hanford Municipal Airport: широта 36.3186 долгота -119.6289 высота над уровнем моря 74 м.

В архиве по умолчанию представлена погода в Ханфорде за последние 1-2 суток. Обновление информации о фактической погоде в базе происходит ежечасно! Архивные данные за месяц целиком и за предыдущие месяцы Вы можете получить, выбрав интересующий диапазон дат из раскрывающегося списка и нажав кнопку "Ввод!".

Внимание! Архив погоды МЕТАР в базе сайта хранится не более 60 дней. Нет смысла пытаться выбрать более раннюю дату.

Внимание! Время в таблицах - всемирное. Для получения местного времени необходимо прибавить поправку, которая в Ханфорде равна -8 ч.

Ветер - указаны скорость ветра в м/с и направление, откуда дует ветер: С - северный, СВ - северо-восточный, В - восточный, ЮВ - юго-восточный, Ю - южный, ЮЗ - юго-западный, З - западный, СЗ - северо-западный.
Видимость - горизонтальная дальность видимости в метрах или километрах. При видимости от 1 до 10 км при отсутствии осадков обычно наблюдается дымка, при ухудшении видимости до 1 км и менее - туман. В сухую погоду видимость может ухудшаться дымом, пылью или мглою.
Атмосферные явления - указаны явления, наблюдавшиеся в указанный момент времени.
Облачность - указаны через наклонную черту верхняя и нижняя облачность в баллах и высота нижней границы облаков в метрах. Внимание: облачность, как и прочие метеорологические величины в США измеряются автоматическими метеостанциями. Указанные значения в баллах носят условный характер и показывают процент времени, в течение которого, в среднем, лазерный луч высотомера отражался от облаков обратно.
T - Температура воздуха - температура, измеренная на высоте 2 м над землей.
Td - Температура точки росы - температура, при понижении до которой содержащийся в воздухе водяной пар достигнет насыщения.
f - Относительная влажность воздуха - влажноcть воздуха, измеренная на высоте 2 м над землей.
Te - Эффективная температура - температура, которую ощущает одетый по сезону человек в тени. Характеристика душности погоды. При расчете учитывается влияние влажности воздуха и скорости ветра на теплоощущения человека.
Tes - Эффективная температура на солнце - температура, которую ощущает человек, с поправкой на солнечный нагрев. Характеристика знойности погоды. Зависит от высоты солнца над горизонтом, облачности и скорости ветра. Ночью, в пасмурную погоду, а также при ветре 12 м/с и более поправка равна нулю.
P - Атмосферное давление - приведенное к уровню моря атмосферное давление.
Po - Атмосферное давление - измеренное на уровне метеостанции атмосферное давление.
Tmin - Минимальная температура - минимум температуры воздуха на высоте 2 м над землей.
Tmax - Максимальная температура - максимум температуры воздуха на высоте 2 м над землей.
R - Количество осадков - Количество выпавших осадков за 3 или 6 часов, мм.
SD - Снежный покров - Высота снежного покрова, см.